Zurück zum Katalog

STARLINK-4649

AktivKommunikationVLEO
NORAD 53831·PAYLOAD·🇺🇸 United States

Gestartet Sep 19, 2022 von Cape Canaveral Space Force Station

Loading…

Nächste Überflüge (nächste 24 Stunden)

TLE

AktuellSource: CelesTrak SupGP

Epoche: Sep 14, 2026, 21:00 UTC

1 53831C 22114P   26257.87548611 -.00027491  00000+0 -81225-3 0  2574
2 53831  53.1607 165.6808 0001301  87.5566 269.5962 15.34403334    10

Verfolge STARLINK-4649 in Echtzeit mit AllMySat

Download on the App Store